When you browse on this site, cookies collect data to enhance your experience and personalize the content and advertising you see.
Visit our Privacy Policy to learn more. By continuing to use the site, you agree to this use of cookies and data.
  • In Hungary
  • List of Countries
  • For 7 days
  • Water Temperature
  • Satellite Maps
  • Weather Map
  • News
  • Weather Widgets
  • user-avatar
    Login

    Hourly Weather Novobikmetovo

    Today, 19 November, Monday

    Time Temperature Precipitation Wind Pressure Humidity
    00:00 -3°C° 0 mm 2 mps 752 mmHg 77%
    01:00 -3°C° 0 mm 2 mps 752 mmHg 80%
    02:00 -3°C° 0 mm 2 mps 752 mmHg 82%
    03:00 -3°C° 0 mm 2 mps 752 mmHg 84%
    04:00 -3°C° 0 mm 2 mps 752 mmHg 84%
    05:00 -3°C° 0 mm 2 mps 752 mmHg 84%
    06:00 -3°C° 0 mm 2 mps 752 mmHg 85%
    07:00 -3°C° 0 mm 2 mps 752 mmHg 86%
    08:00 -2°C° 0.1 mm 2 mps 753 mmHg 87%
    09:00 -2°C° 0.1 mm 2 mps 753 mmHg 87%
    10:00 -2°C° 0 mm 2 mps 752 mmHg 87%
    11:00 -2°C° 0.1 mm 2 mps 753 mmHg 87%
    12:00 -2°C° 0.1 mm 2 mps 753 mmHg 88%
    13:00 -1°C° 0.1 mm 2 mps 753 mmHg 88%
    14:00 -2°C° 0.2 mm 2 mps 753 mmHg 91%
    15:00 -2°C° 0.2 mm 2 mps 753 mmHg 93%
    16:00 0°C° 0 mm 1 mps 753 mmHg 96%
    17:00 0°C° 0.2 mm 1 mps 752 mmHg 96%
    18:00 0°C° 0.2 mm 1 mps 752 mmHg 96%
    19:00 0°C° 0.2 mm 1 mps 752 mmHg 97%
    20:00 0°C° 0.2 mm 1 mps 752 mmHg 97%
    21:00 0°C° 0.2 mm 1 mps 752 mmHg 97%
    22:00 0°C° 0.2 mm 1 mps 752 mmHg 97%
    23:00 0°C° 0.2 mm 1 mps 752 mmHg 97%

    Tomorrow, 20 November, Tuesday

    Time Temperature Precipitation Wind Pressure Humidity
    00:00 0°C° 0.2 mm 1 mps 752 mmHg 97%
    01:00 0°C° 0.2 mm 1 mps 752 mmHg 97%
    02:00 -1°C° 0.2 mm 1 mps 752 mmHg 97%
    03:00 -1°C° 0.2 mm 1 mps 752 mmHg 97%
    04:00 -1°C° 0.2 mm 1 mps 752 mmHg 97%
    05:00 -1°C° 0.2 mm 1 mps 751 mmHg 97%
    06:00 -1°C° 0.2 mm 1 mps 751 mmHg 97%
    07:00 -1°C° 0.2 mm 1 mps 751 mmHg 97%
    08:00 -1°C° 0.1 mm 1 mps 751 mmHg 96%
    09:00 -1°C° 0.1 mm 1 mps 751 mmHg 95%
    10:00 0°C° 0.1 mm 1 mps 751 mmHg 95%
    11:00 0°C° 0 mm 1 mps 751 mmHg 94%
    12:00 0°C° 0 mm 1 mps 751 mmHg 93%
    13:00 0°C° 0 mm 1 mps 750 mmHg 92%
    14:00 0°C° 0 mm 1 mps 750 mmHg 93%
    15:00 0°C° 0 mm 1 mps 750 mmHg 94%
    16:00 0°C° 0 mm 1 mps 750 mmHg 95%
    17:00 0°C° 0 mm 1 mps 749 mmHg 95%
    18:00 0°C° 0 mm 1 mps 749 mmHg 96%
    19:00 -1°C° 0 mm 1 mps 749 mmHg 96%
    20:00 -3°C° 0 mm 2 mps 749 mmHg 96%
    21:00 -3°C° 0 mm 2 mps 748 mmHg 96%
    22:00 -3°C° 0 mm 2 mps 748 mmHg 96%
    23:00 -4°C° 0 mm 3 mps 747 mmHg 94%

    Day after tomorrow, 21 November, Wednesday

    Time Temperature Precipitation Wind Pressure Humidity
    00:00 -4°C° 0 mm 3 mps 747 mmHg 93%
    01:00 -4°C° 0 mm 3 mps 746 mmHg 91%
    02:00 -4°C° 0 mm 4 mps 746 mmHg 89%
    03:00 -4°C° 0 mm 4 mps 745 mmHg 88%
    04:00 -5°C° 0 mm 4 mps 744 mmHg 86%
    05:00 -6°C° 0 mm 5 mps 744 mmHg 85%
    06:00 -6°C° 0 mm 5 mps 743 mmHg 84%
    07:00 -7°C° 0 mm 5 mps 742 mmHg 84%
    08:00 -8°C° 0.1 mm 6 mps 741 mmHg 85%
    09:00 -8°C° 0.1 mm 6 mps 741 mmHg 86%
    10:00 -8°C° 0.1 mm 6 mps 740 mmHg 87%
    11:00 -8°C° 0.5 mm 6 mps 739 mmHg 88%
    12:00 -6°C° 0.5 mm 6 mps 738 mmHg 89%
    13:00 -6°C° 0.5 mm 6 mps 738 mmHg 90%
    14:00 -6°C° 0.3 mm 6 mps 737 mmHg 90%
    15:00 -6°C° 0.3 mm 6 mps 736 mmHg 90%
    16:00 -6°C° 0.3 mm 5 mps 736 mmHg 90%
    17:00 -6°C° 0.3 mm 5 mps 735 mmHg 91%
    18:00 -6°C° 0.3 mm 5 mps 735 mmHg 92%
    19:00 -6°C° 0.3 mm 5 mps 735 mmHg 93%
    20:00 -6°C° 0.3 mm 5 mps 735 mmHg 90%
    21:00 -8°C° 0.3 mm 6 mps 735 mmHg 88%
    22:00 -8°C° 0.3 mm 6 mps 735 mmHg 85%
    23:00 -8°C° 0.1 mm 6 mps 735 mmHg 85%

    22 November, Thursday

    Time Temperature Precipitation Wind Pressure Humidity
    00:00 -9°C° 0.1 mm 7 mps 735 mmHg 84%
    01:00 -9°C° 0.1 mm 7 mps 735 mmHg 83%
    02:00 -10°C° 0 mm 6 mps 735 mmHg 82%
    03:00 -11°C° 0 mm 6 mps 736 mmHg 81%
    04:00 -11°C° 0 mm 5 mps 736 mmHg 80%
    05:00 -12°C° 0 mm 5 mps 736 mmHg 84%
    06:00 -11°C° 0 mm 4 mps 736 mmHg 87%
    07:00 -11°C° 0 mm 4 mps 737 mmHg 90%
    08:00 -11°C° 0 mm 4 mps 737 mmHg 89%
    09:00 -12°C° 0 mm 5 mps 737 mmHg 88%
    10:00 -11°C° 0 mm 5 mps 737 mmHg 86%
    11:00 -11°C° 0 mm 5 mps 737 mmHg 86%
    12:00 -11°C° 0 mm 5 mps 736 mmHg 85%
    13:00 -11°C° 0 mm 5 mps 736 mmHg 84%
    14:00 -10°C° 0.1 mm 4 mps 736 mmHg 86%
    15:00 -9°C° 0.1 mm 4 mps 735 mmHg 88%
    16:00 -9°C° 0.1 mm 4 mps 735 mmHg 89%
    17:00 -9°C° 0.2 mm 4 mps 734 mmHg 90%
    18:00 -9°C° 0.2 mm 4 mps 734 mmHg 91%
    19:00 -9°C° 0.2 mm 4 mps 733 mmHg 92%
    20:00 -10°C° 0.5 mm 5 mps 732 mmHg 93%
    21:00 -8°C° 0.5 mm 5 mps 732 mmHg 93%
    22:00 -8°C° 0.5 mm 5 mps 731 mmHg 93%
    23:00 -8°C° 0.5 mm 5 mps 731 mmHg 92%

    23 November, Friday

    Time Temperature Precipitation Wind Pressure Humidity
    00:00 -8°C° 0.5 mm 5 mps 731 mmHg 92%
    01:00 -8°C° 0.5 mm 5 mps 731 mmHg 91%
    02:00 -10°C° 0.1 mm 6 mps 731 mmHg 90%
    03:00 -11°C° 0.1 mm 6 mps 732 mmHg 89%
    04:00 -12°C° 0.1 mm 6 mps 732 mmHg 87%
    05:00 -14°C° 0 mm 6 mps 733 mmHg 85%
    06:00 -15°C° 0 mm 6 mps 734 mmHg 82%
    07:00 -16°C° 0 mm 6 mps 735 mmHg 80%
    08:00 -16°C° 0 mm 6 mps 736 mmHg 80%
    09:00 -17°C° 0 mm 6 mps 738 mmHg 81%
    10:00 -17°C° 0 mm 5 mps 739 mmHg 82%
    11:00 -17°C° 0 mm 5 mps 740 mmHg 83%
    12:00 -17°C° 0 mm 5 mps 740 mmHg 83%
    13:00 -16°C° 0 mm 4 mps 741 mmHg 83%
    14:00 -16°C° 0 mm 4 mps 742 mmHg 86%
    15:00 -17°C° 0 mm 4 mps 742 mmHg 88%
    16:00 -16°C° 0 mm 3 mps 743 mmHg 90%
    17:00 -16°C° 0 mm 3 mps 743 mmHg 91%
    18:00 -17°C° 0 mm 3 mps 744 mmHg 92%
    19:00 -17°C° 0 mm 3 mps 744 mmHg 93%
    20:00 -17°C° 0 mm 3 mps 745 mmHg 94%
    21:00 -17°C° 0 mm 3 mps 745 mmHg 94%
    22:00 -17°C° 0 mm 3 mps 745 mmHg 94%
    23:00 -17°C° 0 mm 3 mps 745 mmHg 94%

    24 November, Saturday

    Time Temperature Precipitation Wind Pressure Humidity
    00:00 -17°C° 0 mm 3 mps 746 mmHg 95%
    01:00 -17°C° 0 mm 3 mps 746 mmHg 95%
    02:00 -17°C° 0 mm 3 mps 746 mmHg 95%
    03:00 -17°C° 0 mm 3 mps 746 mmHg 95%
    04:00 -17°C° 0 mm 3 mps 746 mmHg 96%
    05:00 -17°C° 0 mm 4 mps 746 mmHg 95%
    06:00 -16°C° 0 mm 4 mps 746 mmHg 95%
    07:00 -15°C° 0 mm 4 mps 746 mmHg 94%
    08:00 -15°C° 0 mm 5 mps 745 mmHg 92%
    09:00 -14°C° 0 mm 5 mps 745 mmHg 91%
    10:00 -14°C° 0 mm 6 mps 745 mmHg 89%
    11:00 -14°C° 0 mm 6 mps 744 mmHg 88%
    12:00 -13°C° 0 mm 7 mps 744 mmHg 87%
    13:00 -12°C° 0 mm 7 mps 743 mmHg 86%
    14:00 -12°C° 0.1 mm 8 mps 743 mmHg 86%
    15:00 -12°C° 0.1 mm 8 mps 742 mmHg 86%
    16:00 -11°C° 0.1 mm 8 mps 742 mmHg 86%
    17:00 -11°C° 0.1 mm 8 mps 741 mmHg 85%
    18:00 -11°C° 0.1 mm 9 mps 741 mmHg 85%
    19:00 -10°C° 0.1 mm 9 mps 740 mmHg 84%
    20:00 -10°C° 0.2 mm 9 mps 740 mmHg 85%
    21:00 -10°C° 0.2 mm 9 mps 740 mmHg 86%
    22:00 -9°C° 0.2 mm 9 mps 739 mmHg 86%
    23:00 -9°C° 0.2 mm 9 mps 740 mmHg 86%
    Show more